Regional Weather Roundup
Issued by NWS

Home | Current Version | Previous Version | Text Only | Print | Product List | Glossary Off
Versions: 1 2 3 4 5 6 7 8 9 10 11 12 13 14 15 16 17 18 19 20 21 22 23 24 25 26 27 28 29 30 31 32 33 34 35 36 37 38 39 40 41 42 43 44 45 46 47 48 49 50

000
ASUS43 KLMK 311102
RWRKY
KENTUCKY REGIONAL WEATHER ROUNDUP
NATIONAL WEATHER SERVICE LOUISVILLE KY
700 AM EDT FRI OCT 31 2014

NOTE "FAIR" INDICATES FEW OR NO CLOUDS BELOW 12,000 FEET
WITH NO SIGNIFICANT WEATHER AND/OR OBSTRUCTIONS TO VISIBILITY.

KYZ001>023-026-027-061>063-070>075-311200-
WESTERN AND SOUTH CENTRAL KENTUCKY

CITY           SKY/WX    TMP DP  RH WIND       PRES   REMARKS
PADUCAH        CLOUDY    50  49  96 CALM      30.02R
HENDERSON      CLOUDY    48  43  81 N7        30.03R
OWENSBORO      CLOUDY    48  44  86 NE7       30.03R
HOPKINSVILLE   LGT RAIN  49  49  99 N7        30.01R FOG
BOWLING GREEN  CLOUDY    49  43  80 CALM      30.00S
GLASGOW        NOT AVBL
$$

KYZ024-025-028>034-038-045-046-053-311200-
NORTH CENTRAL KENTUCKY

CITY           SKY/WX    TMP DP  RH WIND       PRES   REMARKS
LOUISVILLE/SDF LGT RAIN  48  43  82 VRB3      30.00S
LOUISVILLE/LOU LGT RAIN  47  44  90 NW5       30.01R
FORT KNOX      LGT RAIN  45  42  90 NW6       29.99R
$$

KYZ035>037-039>044-047>052-055>060-089>105-311200-
NORTHEAST KENTUCKY

CITY           SKY/WX    TMP DP  RH WIND       PRES   REMARKS
LEXINGTON      CLOUDY    46  41  82 CALM      29.99S
COVINGTON      CLOUDY    44  41  89 CALM      29.98S
FRANKFORT      LGT RAIN  43  41  93 CALM      29.99S FOG
$$

KYZ054-064>069-076>088-106>120-311200-
SOUTHEAST KENTUCKY

CITY           SKY/WX    TMP DP  RH WIND       PRES   REMARKS
JACKSON        CLOUDY    41  34  76 CALM      29.97F
LONDON         CLOUDY    42  39  89 CALM      29.98S
SOMERSET       LGT RAIN  41  41 100 CALM      30.00F
MIDDLESBORO    NOT AVBL
MONTICELLO     LGT RAIN  43  42  96 CALM      30.01R
$$




USA.gov is the U.S. government's official web portal to all federal, state and local government web resources and services.